This is the latest recevied weather packets stored in our database for station/object DG4DAZ-6. If no packets are shown the sender has not sent any weather packets the latest 1 day(s).
| Time | Temp. | Humidity | Pressure | Rain* | Wind** | Luminosity | Snow |
|---|---|---|---|---|---|---|---|
| 1778002434 | 11.11° C | 96% | 1006 hPa | 0.76 mm | 0 m/s | 14 W/m² | - |
| 1778001835 | 11.11° C | 96% | 1006 hPa | 0.51 mm | 0.45 m/s, 360° | 18 W/m² | - |
| 1778001235 | 11.11° C | 96% | 1006.1 hPa | 0.51 mm | 0 m/s | 16 W/m² | - |
| 1778000634 | 11.67° C | 96% | 1006 hPa | 0.25 mm | 0 m/s | 16 W/m² | - |
| 1778000034 | 11.67° C | 96% | 1006.1 hPa | 0.25 mm | 0 m/s | 19 W/m² | - |
| 1777999435 | 11.67° C | 96% | 1006 hPa | 0.51 mm | 0.45 m/s, 360° | 23 W/m² | - |
| 1777998835 | 11.67° C | 95% | 1006.1 hPa | 0.51 mm | 0 m/s | 25 W/m² | - |
| 1777998234 | 11.67° C | 95% | 1006.1 hPa | 0.76 mm | 0 m/s | 26 W/m² | - |
| 1777997634 | 11.67° C | 95% | 1006.2 hPa | 0.76 mm | 0 m/s | 27 W/m² | - |
| 1777997036 | 11.67° C | 95% | 1006.2 hPa | 0.76 mm | 0.45 m/s, 360° | 27 W/m² | - |
| 1777996435 | 11.67° C | 95% | 1006.3 hPa | 0.76 mm | 0 m/s | 30 W/m² | - |
| 1777995835 | 12.22° C | 95% | 1006.3 hPa | 0.51 mm | 0.89 m/s, 360° | 39 W/m² | - |
| 1777995234 | 12.22° C | 94% | 1006.2 hPa | 0.51 mm | 0 m/s | 35 W/m² | - |
| 1777994635 | 12.22° C | 94% | 1006.3 hPa | 0.25 mm | 0.45 m/s, 360° | 38 W/m² | - |
| 1777994035 | 12.22° C | 93% | 1006.4 hPa | 0.25 mm | 0 m/s | 40 W/m² | - |
| 1777993434 | 12.78° C | 93% | 1006.4 hPa | 0 mm | 0.45 m/s, 360° | 46 W/m² | - |
| 1777992834 | 12.78° C | 93% | 1006.5 hPa | 0 mm | 0.45 m/s, 360° | 41 W/m² | - |
| 1777992234 | 13.33° C | 92% | 1006.5 hPa | 0 mm | 0.89 m/s, 344° | 39 W/m² | - |
| 1777991634 | 13.33° C | 92% | 1006.5 hPa | 0 mm | 0 m/s | 62 W/m² | - |
| 1777991036 | 13.89° C | 91% | 1006.6 hPa | 0 mm | 0.45 m/s, 360° | 67 W/m² | - |
| 1777990433 | 13.89° C | 91% | 1006.6 hPa | 0 mm | 0 m/s | 157 W/m² | - |
| 1777989834 | 14.44° C | 91% | 1006.6 hPa | 0 mm | 0 m/s | 142 W/m² | - |
| 1777989235 | 14.44° C | 90% | 1006.6 hPa | 0 mm | 0.45 m/s, 360° | 179 W/m² | - |
| 1777988634 | 14.44° C | 89% | 1006.7 hPa | 0 mm | 0.45 m/s, 74° | 158 W/m² | - |
| 1777988033 | 14.44° C | 90% | 1006.8 hPa | 0 mm | 0 m/s | 162 W/m² | - |
* Rain latest hour (hover to see other rain measurements)
** Current wind speed in m/s (hover to see current wind gust speed)